User: anonymous   Login
Location: Fort Wayne
(41.1310°N, 85.1290°W)
Time: 18:34:08
(UTC-04:00)
Language:

Cosmos 2219 Rocket - Orbit

View from above orbital plane
View from above orbital plane
View from above satellite
View from above satellite

Ground track
Ground track

The orbit data is extracted from the following two-line orbital elements,

1 22220U 92076B   16212.57078237  .00000190  00000-0  11944-3 0  9995
2 22220  71.0006  16.2245 0011517  35.1578  26.2124 14.16401508225239
Epoch (UTC): 30 July 2016 13:41:55
Eccentricity: 0.0011517
inclination: 71.0006°
perigee height: 829 km
apogee height: 846 km
right ascension of ascending node: 16.2245°
argument of perigee: 35.1578°
revolutions per day: 14.16401508
mean anomaly at epoch: 26.2124°
orbit number at epoch: 22523

The dashed part of the orbit path shows where the satellite is in the earth's shadow,  

DLR